5.8 km to miles

Treadmill pace chart – speed treadmill conversions, pace times and target distances table

When weather conditions are risky in the cold weather, I usually perform my running on a treadmill at the Health and fitness center, treadmill jogging is actually an odd option, but there are actually a couple of traits you need to recognize. If you’re performing at velocities under 9 miles per hr (a really prompt 6:40-minute-mile speed), treadmill running burns about the same number of fats as jogging outdoors. Of course, you can buy a device looking at treadmill speed chart in order to make your run as comfortable as possible and, for the same reason, look for a treadmill conversion chart on the Net.

But if you work faster than 9 miles per hour, you’ll burn far fewer calories on the treadmill. That is actually due to the fact that you don’t have to conquer wind protection as well as since the treadmill waistband performs drive you along a little bit. Thus, for the normal jogger treadmill is a great option and you can regulate treadmill speeds and follow the treadmill speed calculator. Therefore, if you may certainly not venture out a jog, just get on the treadmill and also go, listed below is a speed transformation, speed opportunities, and target spans desk to specify that treadmill the right way for your degree. I hope this little article helped you a lot and now you know, what kind of treadmill you need, what treadmill mile pace it should have and the advantages of jogging with the help of a treadmill.

mph min/mile 3.1 mile

5 km

5 mile

8.05 km

6.22 mile

10 km

10 mile

16.09 km

13.11 mile 

half marathon

26.22 mile 

marathon

3 20:00 1:02:00 1:40:00 2:04:00 3:20:00 4:22:00 8:44:00
3,2 18:45 0:58:08 1:33:45 1:56:15 3:07:30 4:05:38 8:11:15
3,4 17:39 0:54:43 1:28:14 1:49:25 2:56:28 3:51:11 7:42:21
3,6 16:40 0:51:40 1:23:20 1:43:20 2:46:40 3:38:20 7:16:40
3,8 15:47 0:48:57 1:18:57 1:37:54 2:37:54 3:26:51 6:53:41
4 15:00 0:46:30 1:15:00 1:33:00 2:30:00 3:16:30 6:33:00
4,2 14:17 0:44:17 1:11:26 1:28:34 2:22:51 3:07:09 6:14:17
4,4 13:38 0:42:16 1:08:11 1:24:33 2:16:22 2:58:38 5:57:16
4,6 13:03 0:40:27 1:05:13 1:20:52 2:10:26 2:50:52 5:41:44
4,8 12:30 0:38:45 1:02:30 1:17:30 2:05:00 2:43:45 5:27:30
5 12:00 0:37:12 1:00:00 1:14:24 2:00:00 2:37:12 5:14:24
5,2 11:32 0:35:46 0:57:42 1:11:32 1:55:23 2:31:09 5:02:18
5,4 11:07 0:34:28 0:55:33 1:08:53 1:51:07 2:25:33 4:51:07
5,6 10:43 0:33:14 0:53:34 1:06:26 1:47:09 2:20:21 4:40:43
5,8 10:21 0:32:05 0:51:43 1:04:08 1:43:27 2:15:31 4:31:02
6 10:00 0:31:00 0:50:00 1:02:00 1:40:00 2:11:00 4:22:00
6,2 9:41 0:30:00 0:48:23 1:00:00 1:36:46 2:06:46 4:13:33
6,4 9:23 0:29:05 0:46:53 0:58:08 1:33:45 2:02:49 4:05:38
6,6 9:05 0:28:11 0:45:27 0:56:22 1:30:55 1:59:05 3:58:11
6,8 8:49 0:27:21 0:44:07 0:54:42 1:28:14 1:55:35 3:51:11
7 8:34 0:26:34 0:42:51 0:53:09 1:25:43 1:52:17 3:44:34
7,2 8:20 0:25:50 0:41:40 0:51:40 1:23:20 1:49:10 3:38:20
7,4 8:06 0:25:08 0:40:32 0:50:16 1:21:05 1:46:13 3:32:26
7,6 7:54 0:24:29 0:39:27 0:48:57 1:18:57 1:43:25 3:26:51
7,8 7:42 0:23:52 0:38:28 0:47:42 1:16:55 1:40:46 3:21:32
8 7:30 0:23:15 0:37:30 0:46:30 1:15:00 1:38:15 3:16:30
8,2 7:19 0:22:41 0:36:35 0:45:22 1:13:10 1:35:51 3:11:42
8,4 7:09 0:22:10 0:35:43 0:44:17 1:11:26 1:33:34 3:07:09
8,6 6:59 0:21:39 0:34:53 0:43:15 1:09:46 1:31:24 3:02:47
8,8 6:49 0:21:08 0:34:05 0:42:16 1:08:11 1:29:19 2:58:38
9 6:40 0:20:40 0:33:20 0:41:20 1:06:40 1:27:20 2:54:40
9,2 6:31 0:20:13 0:32:37 0:40:26 1:05:13 1:25:26 2:50:52
9,4 6:23 0:19:48 0:31:55 0:39:34 1:03:50 1:23:37 2:47:14
9,6 6:15 0:19:23 0:31:15 0:38:45 1:02:30 1:21:53 2:43:45
9,8 6:07 0:18:59 0:30:37 0:37:58 1:01:13 1:20:12 2:40:24
10 6:00 0:18:36 0:30:00 0:37:12 1:00:00 1:18:36 2:37:12
10,2 5:53 0:18:15 0:29:25 0:36:28 0:58:49 1:17:04 2:34:07
10,4 5:46 0:17:53 0:28:51 0:35:46 0:57:42 1:15:35 2:31:09
10,6 5:40 0:17:34 0:28:18 0:35:06 0:56:36 1:14:09 2:28:18
10,8 5:33 0:17:13 0:27:47 0:34:27 0:55:33 1:12:47 2:25:33
11 5:27 0:16:55 0:27:16 0:33:49 0:54:33 1:11:27 2:22:55
11,2 5:21 0:16:36 0:26:47 0:33:13 0:54:34 1:10:11 2:20:21
11,4 5:16 0:16:19 0:26:19 0:32:38 0:52:38 1:08:57 2:17:54
11,6 5:10 0:16:02 0:25:52 0:32:04 0:51:43 1:07:46 2:15:31
11,8 5:05 0:15:46 0:25:25 0:31:32 0:50:51 1:06:37 2:13:13
12 5:00 0:15:30 0:25:00 0:31:00 0:50:00 1:05:30 2:11:00
mph min/mile 3.1 mile

5 km

5 mile

8.05 km

6.22 mile

10 km

10 mile

16.09 km

13.11 mile 

half marathon

26.22 mile 

marathon

P.S. All the calculations have been made by me without the help of the other people. You can use and copy it if you want but it ‘s only on your’s own account

treadmill speed calculator

Leave a Comment

Your email address will not be published. Required fields are marked *

This site uses Akismet to reduce spam. Learn how your comment data is processed.